Location: Unspecified
(32.8958°N, 0.0000°E)
Time: 09:24:22
(UTC+00:00)

Orbcomm A8 (FM12) - Visible Passes

Search period start: 04 April 2026 00:00
Search period end: 14 April 2026 00:00
Orbit: 733 x 741 km, 45.0° (Epoch: 29 March)

Date Brightness Start Highest point End Pass type
(mag) Time Alt. Az. Time Alt. Az. Time Alt. Az.
4 Apr 8.9 20:23:56 10° NW 20:27:54 21° N 20:29:56 17° NNE visible
4 Apr 9.8 22:08:56 10° NW 22:09:28 12° NW 22:09:28 12° NW visible
5 Apr 8.9 19:34:34 10° NW 19:38:35 22° N 19:42:37 10° NE visible
5 Apr 8.9 21:20:00 10° NW 21:22:50 23° NNW 21:22:50 23° NNW visible
6 Apr 8.8 18:45:05 10° WNW 18:49:17 24° N 18:53:29 10° NE visible
6 Apr 8.6 20:30:57 10° NW 20:35:09 23° N 20:36:11 22° NNE visible
6 Apr 9.9 22:15:23 10° NW 22:15:42 12° NW 22:15:42 12° NW visible
7 Apr 8.8 19:41:49 10° NW 19:45:50 22° N 19:49:30 11° NE visible
7 Apr 8.8 21:26:28 10° NW 21:29:01 26° NNW 21:29:01 26° NNW visible
8 Apr 8.9 18:52:33 10° NW 18:56:31 21° N 19:00:28 10° NE visible
8 Apr 8.1 20:37:33 10° NW 20:42:15 32° NNE 20:42:21 32° NNE visible
9 Apr 8.4 19:48:35 10° NW 19:53:01 27° NNE 19:55:41 18° ENE visible
9 Apr 8.8 21:32:54 10° NW 21:35:13 26° NW 21:35:13 26° NW visible
10 Apr 8.6 18:59:32 10° NW 19:03:44 23° N 19:07:55 10° ENE visible
10 Apr 7.4 20:43:58 10° NW 20:48:33 52° N 20:48:33 52° N visible
11 Apr 7.7 19:55:03 10° NW 20:00:00 41° NNE 20:01:56 29° ENE visible
11 Apr 9.1 21:39:35 10° WNW 21:41:28 22° WNW 21:41:28 22° WNW visible
12 Apr 8.1 19:06:07 10° NW 19:10:49 32° NNE 19:15:20 11° E visible
12 Apr 7.3 20:50:28 10° WNW 20:54:52 61° W 20:54:52 61° W visible
13 Apr 6.9 20:01:27 10° NW 20:06:43 76° NNE 20:08:20 45° ESE visible
13 Apr 9.5 21:46:58 10° W 21:47:51 13° W 21:47:51 13° W visible
